Location: Breitenfeld
(46.8500°N, 15.6333°E)
Time: 21:57:51
(UTC+00:00)

Abrixas rocket - Pass Details

Date: 09 April 2020
Orbit: 344 x 351 km, 48.4° (Epoch: 02 June)

Event Time Altitude Azimuth Distance (km) Brightness Sun altitude
Rises 19:52:30 0° 283° (WNW) 2,171 7.0 -21.4°
Reaches altitude 10° 19:54:43 10° 269° (W) 1,327 5.4 -21.6°
Enters shadow 19:56:07 20° 247° (WSW) 909 4.2 -21.8°
